Regional Weather Roundup
Issued by NWS

Home | Current Version | Previous Version | Graphics & Text | Print | Product List | Glossary Off
Versions: 1 2 3 4 5 6 7 8 9 10 11 12 13 14 15 16 17 18 19 20 21 22 23 24 25 26 27 28 29 30 31 32 33 34 35 36 37 38 39 40 41 42 43 44 45 46 47 48 49 50

000
ASUS43 KDTX 231810
RWRMI
MICHIGAN HOURLY REGIONAL WEATHER ROUNDUP
NATIONAL WEATHER SERVICE DETROIT/PONTIAC MI
200 PM EDT SAT AUG 23 2014

NOTE: "FAIR" INDICATES FEW OR NO CLOUDS BELOW 12,000 FEET WITH NO
SIGNIFICANT WEATHER AND/OR OBSTRUCTION TO VISIBILITY.

MIZ047>049-052>055-059>063-066>070-074>076-081>083-231900-
SOUTHEAST LOWER MICHIGAN

CITY           SKY/WX    TMP DP  RH WIND       PRES   REMARKS
ADRIAN         MOSUNNY   81  64  56 E8        30.07R
6HR MIN TEMP:  70; 6HR MAX TEMP:  81;

ALMA           CLOUDY    74  65  73 NE8       30.09S
ANN ARBOR      PTSUNNY   80  66  62 E9        30.06S
BAD AXE        CLOUDY    73  68  85 NE5       30.11R
6HR MIN TEMP:  62; 6HR MAX TEMP:  73;

CARO           PTSUNNY   76  65  70 CALM      30.09R
DETROIT CITY   CLOUDY    77  65  66 E5        30.08S
6HR MIN TEMP:  66; 6HR MAX TEMP:  76;

DETROIT        PTSUNNY   75  67  76 N7        30.07S HAZE
6HR MIN TEMP:  66; 6HR MAX TEMP:  75;

FLINT          MOSUNNY   79  64  60 NE8       30.08S
6HR MIN TEMP:  64; 6HR MAX TEMP:  80;

GROSSE ILE     CLOUDY    73  68  83 S5        30.06R
HILLSDALE      CLOUDY    80  70  71 E7        30.07R
6HR MIN TEMP:  67; 6HR MAX TEMP:  81;

HOWELL         SUNNY     78  64  62 NE6       30.07R
6HR MIN TEMP:  63; 6HR MAX TEMP:  78;


CITY           SKY/WX    TMP DP  RH WIND       PRES   REMARKS
JACKSON        MOSUNNY   83  66  56 VRB5      30.06S
6HR MIN TEMP:  69; 6HR MAX TEMP:  83;

LAMBERTVILLE   MOSUNNY   79  66  65 NE6       30.07R
LANSING        SUNNY     78  67  68 VRB7      30.08R
6HR MIN TEMP:  65; 6HR MAX TEMP:  79;

LAPEER         CLOUDY    70  64  80 CALM      30.10S
MASON          MOSUNNY   79  64  61 NE8       30.07R
MONROE         MOSUNNY   77  66  69 E7        30.05S
MT. CLEMENS    MOSUNNY   76  65  68 NE3       30.07S HAZE
6HR MIN TEMP:  64; 6HR MAX TEMP:  76;

PONTIAC        PTSUNNY   75  65  70 E8        30.08R
6HR MIN TEMP:  64; 6HR MAX TEMP:  76;

PORT HOPE        N/A     69  64  84 NE5       30.10R
6HR MIN TEMP:  62; 6HR MAX TEMP:  69;

PORT HURON     PTSUNNY   75  68  78 N5        30.08S
TRI CITIES     PTSUNNY   74  64  71 NE5       30.10S
6HR MIN TEMP:  66; 6HR MAX TEMP:  74;

TROY           CLOUDY    73  65  77 E5        30.10S HAZE
SAGINAW HB     PTSUNNY   72  64  78 CALM      30.09S
$$
MIZ043>046-050>051-056>058-064>065-071>073-077>080-231900-
SOUTHWEST LOWER MICHIGAN

CITY           SKY/WX    TMP DP  RH WIND       PRES   REMARKS
BATTLE CREEK   PTSUNNY   80  67  64 VRB5      30.07R
6HR MIN TEMP:  71; 6HR MAX TEMP:  81;

BENTON HARBOR  PTSUNNY   84  72  67 SE9       30.02F
6HR MIN TEMP:  70; 6HR MAX TEMP:  84;

BIG RAPIDS     SUNNY     79  67  66 SE7       30.08S
6HR MIN TEMP:  63; 6HR MAX TEMP:  79;

COLDWATER      PTSUNNY   82  69  63 E3        30.06R
6HR MIN TEMP:  71; 6HR MAX TEMP:  83;

FREMONT        FAIR      81  59  47 E7        30.06S
HOLLAND        PTSUNNY   82  71  69 SE8       30.05F
6HR MIN TEMP:  70; 6HR MAX TEMP:  83;

GRAND RAPIDS   PTSUNNY   83  68  60 E14       30.07R
6HR MIN TEMP:  67; 6HR MAX TEMP:  83;

IONIA          FAIR      77  65  66 E8        30.07S
KALAMAZOO      PTSUNNY   82  69  64 VRB6      30.05R
6HR MIN TEMP:  70; 6HR MAX TEMP:  83;

LUDINGTON      CLOUDY    81  67  62 SE6       30.06S
MARSHALL       PTSUNNY   79  67  66 NE6       30.06R
MOUNT PLEASANT PTSUNNY   76  64  66 E9        30.09S
6HR MIN TEMP:  63; 6HR MAX TEMP:  76;

MUSKEGON       CLOUDY    82  66  58 E13       30.05S
6HR MIN TEMP:  68; 6HR MAX TEMP:  82;

SOUTH HAVEN    PTSUNNY   82  73  74 E10       30.03F
$$
MIZ016>042-231900-
NORTHERN LOWER MICHIGAN

CITY           SKY/WX    TMP DP  RH WIND       PRES   REMARKS
ALPENA         PTSUNNY   73  65  75 E9        30.12S
6HR MIN TEMP:  60; 6HR MAX TEMP:  75;

BEAVER ISLAND  MOSUNNY   74  66  74 E13       30.09F
6HR MIN TEMP:  68; 6HR MAX TEMP:  76;

BELLAIRE       SUNNY     82  62  49 E9        30.06S
6HR MIN TEMP:  65; 6HR MAX TEMP:  82;

CADILLAC       MOSUNNY   80  64  57 SE7       30.08S
CHARLEVOIX     MOSUNNY   79  65  61 SE10      30.11S
6HR MIN TEMP:  68; 6HR MAX TEMP:  79;

GAYLORD        MOSUNNY   75  61  61 SE8       30.11F
6HR MIN TEMP:  63; 6HR MAX TEMP:  76;

GRAYLING       MOSUNNY   79  64  58 E6        30.11S
6HR MIN TEMP:  59; 6HR MAX TEMP:  79;

HARBOR SPRINGS SUNNY     78  64  61 E13G18    30.09F
HOUGHTON LAKE  MOSUNNY   78  63  59 VRB6      30.10S
6HR MIN TEMP:  61; 6HR MAX TEMP:  79;

MANISTEE       CLOUDY    82  64  54 SE5       30.06R
OSCODA         CLOUDY    68  65  89 NE9       30.11R
PELLSTON       CLOUDY    76  65  68 SE10      30.10F
6HR MIN TEMP:  65; 6HR MAX TEMP:  77;

ROGERS CITY    CLOUDY    67  66  97 NE7       30.14S
TRAVERSE CITY  MOSUNNY   84  61  45 VRB7      30.04F
6HR MIN TEMP:  68; 6HR MAX TEMP:  85;

$$
MIZ007>008-015-231900-
EASTERN UPPER MICHIGAN

CITY           SKY/WX    TMP DP  RH WIND       PRES   REMARKS
KINROSS        CLOUDY    70  66  88 E10       30.13S
6HR MIN TEMP:  63; 6HR MAX TEMP:  72;

MACKINAC ISLAN CLOUDY    65  65  99 E8G18     30.12S FOG
6HR MIN TEMP:  62; 6HR MAX TEMP:  66;

NEWBERRY       PTSUNNY   75  64  69 SE9       30.11R
6HR MIN TEMP:  63; 6HR MAX TEMP:  76;

S. S. MARIE    CLOUDY    71  64  78 SE10      30.13S
6HR MIN TEMP:  64; 6HR MAX TEMP:  71;

MUNISING         N/A     76  64  66 S6        30.08S
6HR MIN TEMP:  69; 6HR MAX TEMP:  77;

$$
MIZ004>006-011>014-085-231900-
CENTRAL UPPER MICHIGAN

CITY           SKY/WX    TMP DP  RH WIND       PRES   REMARKS
MANISTIQUE     CLOUDY    71  65  81 E10       30.09S
ESCANABA       CLOUDY    66  63  88 NE7       30.08S
6HR MIN TEMP:  64; 6HR MAX TEMP:  66; 6HR PCP:  0.70;

MENOMINEE      CLOUDY    72  64  78 E7        30.05S
6HR MIN TEMP:  68; 6HR MAX TEMP:  73;

SAWYER-GWINN   CLOUDY    66  66 100 SE10      30.10R FOG
$$
MIZ001>003-009>011-084-231900-
WESTERN UPPER MICHIGAN

CITY           SKY/WX    TMP DP  RH WIND       PRES   REMARKS
IRON MOUNTAIN  CLOUDY    70  66  87 SE8       30.06S FOG
6HR MIN TEMP:  67; 6HR MAX TEMP:  71;

HOUGHTON       CLOUDY    66  62  87 E10       30.06F
6HR MIN TEMP:  62; 6HR MAX TEMP:  69;

COPPER HARBOR    N/A     73  63  70 VRB5      30.07S
6HR MIN TEMP:  54; 6HR MAX TEMP:  73;

$$

ABBREVIATIONS USED IN REMARKS
   TC - TEMPERATURE IN CELSIUS
  WCI - WIND CHILL INDEX
   HX - HEAT INDEX
  VSB - VISIBILITY



USA.gov is the U.S. government's official web portal to all federal, state and local government web resources and services.